Location: G�ppingen
(48.7089°N, 9.6563°E)
Time: 10:06:08
(UTC+02:00)

M-CUBED/EXP-1 PRIME - Pass Details

Date: 27 March 2019
Orbit: 430 x 671 km, 101.7° (Epoch: 20 April)

Event Time Altitude Azimuth Distance (km) Brightness Sun altitude
Rises 21:47:28 0° 10° (N) 2,966 ? -28.1°
Reaches altitude 10° 21:49:53 10° 360° (N) 2,076 ? -28.3°
Maximum altitude 21:53:45 29° 301° (WNW) 1,234 ? -28.8°
Drops below altitude 10° 21:57:41 10° 243° (WSW) 2,101 ? -29.3°
Sets 22:00:08 0° 232° (SW) 3,009 ? -29.5°
